GW2953 Weather Reports


Display with metric or nautical units.
time (UTC)temp
F
wind
direction
speed
MPH
gust
MPH
rain 1hr
in
rain 24hr
in
rain mn
in
humidity
%
barometer
mb
20260905095736 48 240 0.0 2.0 0.00 0.00 0.00 93 1015.4
20260905095235 49 37 0.0 2.0 0.00 0.00 0.00 93 1015.2
20260905094730 49 34 0.0 2.0 0.00 0.00 0.00 93 1015.4
20260905094225 49 44 0.0 2.0 0.00 0.00 0.00 93 1015.5
20260905093725 49 260 0.0 2.0 0.00 0.00 0.00 93 1015.4
20260905093221 49 236 0.0 2.0 0.00 0.00 0.00 93 1015.3
20260905092716 49 277 0.0 1.0 0.00 0.00 0.00 92 1015.4
20260905092211 49 269 0.0 3.0 0.00 0.00 0.00 92 1015.3
20260905091710 49 9 0.0 2.0 0.00 0.00 0.00 92 1015.4
20260905091205 49 290 0.0 2.0 0.00 0.00 0.00 92 1015.4
20260905090659 49 71 2.0 3.0 0.00 0.00 0.00 92 1015.5
20260905090155 49 62 2.0 3.0 0.00 0.00 0.00 92 1015.5
20260905085654 49 49 0.0 1.0 0.00 0.00 0.00 92 1015.5
20260905085149 49 317 2.0 2.0 0.00 0.00 0.00 92 1015.4
20260905084649 49 278 0.0 2.0 0.00 0.00 0.00 92 1015.6
20260905084143 49 135 0.0 3.0 0.00 0.00 0.00 92 1015.5
20260905083638 49 293 1.0 2.0 0.00 0.00 0.00 92 1015.5
20260905083134 49 289 2.0 3.0 0.00 0.00 0.00 92 1015.5
20260905082630 50 205 0.0 1.0 0.00 0.00 0.00 92 1015.6
20260905082126 50 46 2.0 3.0 0.00 0.00 0.00 91 1015.7
20260905081625 50 89 1.0 2.0 0.00 0.00 0.00 91 1015.6
20260905081120 50 22 0.0 2.0 0.00 0.00 0.00 91 1015.5
20260905080615 50 50 0.0 1.0 0.00 0.00 0.00 91 1015.4
20260905080109 50 237 0.0 1.0 0.00 0.00 0.00 91 1015.5
20260905075608 50 129 0.0 2.0 0.00 0.00 0.00 91 1015.5
20260905075108 50 117 0.0 1.0 0.00 0.00 0.00 91 1015.5
20260905074607 50 161 0.0 1.0 0.00 0.00 0.00 90 1015.3
20260905074103 50 10 0.0 2.0 0.00 0.00 0.00 90 1015.5
20260905073559 51 44 0.0 2.0 0.00 0.00 0.00 90 1015.1
20260905073054 51 344 2.0 2.0 0.00 0.00 0.00 90 1015.3
20260905072553 51 240 1.0 2.0 0.00 0.00 0.00 90 1015.2
20260905072049 51 152 1.0 2.0 0.00 0.00 0.00 90 1015.3
20260905071546 50 265 1.0 2.0 0.00 0.00 0.00 90 1015.3
20260905071045 51 195 0.0 2.0 0.00 0.00 0.00 90 1015.3
20260905070536 51 66 1.0 2.0 0.00 0.00 0.00 90 1015.2
20260905070031 51 290 2.0 3.0 0.00 0.00 0.00 90 1015.3
20260905065528 51 84 2.0 3.0 0.00 0.00 0.00 90 1015.1
20260905065025 51 288 2.0 3.0 0.00 0.00 0.00 90 1015.3
20260905064525 51 301 3.0 3.0 0.00 0.00 0.00 89 1015.1
20260905064020 51 111 2.0 3.0 0.00 0.00 0.00 88 1015.2
20260905063519 51 334 1.0 2.0 0.00 0.00 0.00 88 1015.0
20260905063016 51 301 0.0 1.0 0.00 0.00 0.00 87 1015.1
20260905062515 52 82 2.0 3.0 0.00 0.00 0.00 87 1015.1
20260905062010 52 356 1.0 3.0 0.00 0.00 0.00 88 1015.1
20260905061506 52 322 0.0 2.0 0.00 0.00 0.00 88 1015.0
20260905061004 52 245 2.0 2.0 0.00 0.00 0.00 87 1015.1
20260905060500 52 49 3.0 4.0 0.00 0.00 0.00 86 1015.4
20260905055955 52 36 1.0 2.0 0.00 0.00 0.00 86 1015.0
20260905055454 52 343 0.0 2.0 0.00 0.00 0.00 86 1014.9
20260905054949 53 37 0.0 0.0 0.00 0.00 0.00 85 1015.1
20260905054444 53 92 1.0 2.0 0.00 0.00 0.00 85 1015.2
20260905053939 53 115 2.0 3.0 0.00 0.00 0.00 85 1015.1
20260905053434 53 258 2.0 3.0 0.00 0.00 0.00 85 1014.9
20260905052930 53 67 3.0 3.0 0.00 0.00 0.00 84 1014.9
20260905052429 54 10 2.0 4.0 0.00 0.00 0.00 83 1015.0
20260905051928 54 268 2.0 5.0 0.00 0.00 0.00 83 1014.9
20260905051424 53 271 4.0 5.0 0.00 0.00 0.00 84 1014.9
20260905050922 54 132 1.0 4.0 0.00 0.00 0.00 84 1015.0
20260905050417 54 310 1.0 2.0 0.00 0.00 0.00 84 1015.0
20260905045912 54 166 0.0 2.0 0.00 0.00 0.00 83 1015.0
20260905045402 55 66 3.0 6.0 0.00 0.00 0.00 81 1014.9
20260905044857 55 40 3.0 5.0 0.00 0.00 0.00 79 1014.9
20260905044352 55 296 3.0 5.0 0.00 0.00 0.00 81 1014.7
20260905043851 55 313 4.0 5.0 0.00 0.00 0.00 83 1014.7
20260905043346 55 51 2.0 4.0 0.00 0.00 0.00 81 1014.8
20260905042841 55 312 0.0 2.0 0.00 0.00 0.00 80 1014.8
20260905042340 56 147 0.0 2.0 0.00 0.00 0.00 79 1014.5
20260905041835 56 345 0.0 2.0 0.00 0.00 0.00 78 1014.9
20260905041331 57 99 2.0 3.0 0.00 0.00 0.00 76 1014.5
20260905040826 57 103 2.0 3.0 0.00 0.00 0.00 75 1014.4
20260905040324 57 324 2.0 3.0 0.00 0.00 0.00 75 1014.7
20260905035819 58 254 1.0 3.0 0.00 0.00 0.00 73 1014.3
20260905035315 58 284 2.0 3.0 0.00 0.00 0.00 74 1014.3
20260905034811 58 282 2.0 4.0 0.00 0.00 0.00 73 1014.3
20260905034306 58 311 2.0 3.0 0.00 0.00 0.00 74 1014.1
20260905033805 58 312 1.0 3.0 0.00 0.00 0.00 72 1014.0
20260905033300 59 293 1.0 3.0 0.00 0.00 0.00 72 1014.0
20260905032800 59 265 1.0 5.0 0.00 0.00 0.00 71 1013.8
20260905032255 59 33 1.0 2.0 0.00 0.00 0.00 71 1014.0
20260905031750 59 300 1.0 3.0 0.00 0.00 0.00 70 1013.7
20260905031246 60 266 2.0 3.0 0.00 0.00 0.00 69 1013.9
20260905030741 60 353 3.0 4.0 0.00 0.00 0.00 65 1013.8
20260905030236 60 266 2.0 5.0 0.00 0.00 0.00 68 1013.7
20260905025730 61 260 4.0 6.0 0.00 0.00 0.00 68 1013.7
20260905025226 62 326 1.0 3.0 0.00 0.00 0.00 61 1013.6
20260905024721 63 320 1.0 4.0 0.00 0.00 0.00 61 1013.6
20260905024218 62 11 1.0 3.0 0.00 0.00 0.00 62 1013.6
20260905023712 62 284 3.0 4.0 0.00 0.00 0.00 63 1013.7
20260905023213 62 324 2.0 5.0 0.00 0.00 0.00 64 1013.5
20260905022711 63 265 4.0 7.0 0.00 0.00 0.00 62 1013.5
20260905022207 63 290 6.0 9.0 0.00 0.00 0.00 64 1013.6
20260905021707 63 266 5.0 8.0 0.00 0.00 0.00 62 1013.4
20260905021202 63 254 4.0 8.0 0.00 0.00 0.00 62 1013.4
20260905020657 63 273 9.0 10.0 0.00 0.00 0.00 62 1013.4
20260905020152 63 264 6.0 9.0 0.00 0.00 0.00 59 1013.5
20260905015651 63 263 2.0 6.0 0.00 0.00 0.00 60 1013.4
20260905015145 63 266 4.0 10.0 0.00 0.00 0.00 63 1013.6
20260905014639 64 272 4.0 8.0 0.00 0.00 0.00 62 1013.4
20260905014134 64 291 4.0 7.0 0.00 0.00 0.00 60 1013.6
20260905013631 64 79 2.0 9.0 0.00 0.00 0.00 59 1013.5
20260905013126 64 273 3.0 9.0 0.00 0.00 0.00 59 1013.5
20260905012621 65 256 4.0 7.0 0.00 0.00 0.00 60 1013.4
20260905012117 66 267 3.0 5.0 0.00 0.00 0.00 57 1013.3
20260905011613 66 281 3.0 7.0 0.00 0.00 0.00 55 1013.3
20260905011108 67 25 2.0 5.0 0.00 0.00 0.00 51 1013.3
20260905010603 67 170 5.0 7.0 0.00 0.00 0.00 51 1013.3
20260905010059 67 94 3.0 7.0 0.00 0.00 0.00 50 1013.4
20260905005554 68 116 0.0 5.0 0.00 0.00 0.00 49 1013.3
20260905005049 68 136 2.0 5.0 0.00 0.00 0.00 48 1013.3
20260905004544 68 157 1.0 11.0 0.00 0.00 0.00 47 1013.3
20260905004039 68 204 5.0 7.0 0.00 0.00 0.00 48 1013.3
20260905003535 69 55 3.0 5.0 0.00 0.00 0.00 48 1013.1
20260905003031 68 125 2.0 12.0 0.00 0.00 0.00 48 1013.3
20260905002526 69 96 4.0 8.0 0.00 0.00 0.00 47 1013.1
20260905002026 69 129 2.0 3.0 0.00 0.00 0.00 46 1013.0
20260905001520 68 177 3.0 6.0 0.00 0.00 0.00 47 1013.1
20260905001015 69 209 1.0 4.0 0.00 0.00 0.00 46 1013.1
20260905000510 69 64 3.0 7.0 0.00 0.00 0.00 47 1013.0
20260905000006 68 158 5.0 8.0 0.00 0.00 0.00 47 1013.1
20260904235501 69 175 6.0 8.0 0.00 0.00 0.00 45 1013.3
20260904235001 70 173 6.0 11.0 0.00 0.00 0.00 43 1013.1
20260904234501 72 176 4.0 7.0 0.00 0.00 0.00 43 1013.0
20260904233957 72 206 2.0 5.0 0.00 0.00 0.00 41 1012.9
20260904233452 71 190 0.0 3.0 0.00 0.00 0.00 42 1013.0
20260904232948 70 113 5.0 8.0 0.00 0.00 0.00 44 1013.0
20260904232444 69 156 1.0 5.0 0.00 0.00 0.00 46 1013.2
20260904231941 68 118 3.0 9.0 0.00 0.00 0.00 46 1013.2
20260904231436 68 189 4.0 9.0 0.00 0.00 0.00 45 1013.3
20260904230931 69 207 3.0 10.0 0.00 0.00 0.00 45 1013.2
20260904230429 71 186 9.0 12.0 0.00 0.00 0.00 44 1013.0
20260904225925 71 260 7.0 18.0 0.00 0.00 0.00 44 1012.9
20260904225422 72 117 9.0 9.0 0.00 0.00 0.00 43 1012.9
20260904224917 70 185 4.0 10.0 0.00 0.00 0.00 45 1013.1
20260904224413 72 117 4.0 8.0 0.00 0.00 0.00 43 1013.2
20260904223912 71 210 2.0 9.0 0.00 0.00 0.00 43 1013.0
20260904223412 70 192 4.0 8.0 0.00 0.00 0.00 46 1013.1
20260904222908 73 141 5.0 10.0 0.00 0.00 0.00 40 1013.1
20260904222403 74 200 5.0 8.0 0.00 0.00 0.00 40 1013.0
20260904221903 72 191 3.0 8.0 0.00 0.00 0.00 40 1013.2
20260904221357 69 205 2.0 12.0 0.00 0.00 0.00 42 1013.1
20260904220853 70 187 4.0 9.0 0.00 0.00 0.00 42 1013.3
20260904220352 73 159 7.0 11.0 0.00 0.00 0.00 42 1013.2
20260904215848 74 114 5.0 11.0 0.00 0.00 0.00 40 1013.2
20260904215342 72 223 11.0 11.0 0.00 0.00 0.00 39 1013.3
20260904214838 73 212 4.0 9.0 0.00 0.00 0.00 39 1013.0
20260904214334 71 261 2.0 15.0 0.00 0.00 0.00 40 1013.0
20260904213832 74 173 5.0 9.0 0.00 0.00 0.00 36 1012.9
20260904213327 72 105 6.0 15.0 0.00 0.00 0.00 38 1012.9
20260904212824 72 122 3.0 11.0 0.00 0.00 0.00 40 1012.8
20260904212323 72 166 4.0 14.0 0.00 0.00 0.00 36 1012.9
20260904211819 72 103 9.0 10.0 0.00 0.00 0.00 37 1012.9
20260904211313 72 193 2.0 9.0 0.00 0.00 0.00 37 1013.1
20260904210803 71 91 6.0 8.0 0.00 0.00 0.00 37 1012.9
20260904210302 69 289 3.0 11.0 0.00 0.00 0.00 38 1013.0
20260904205759 70 190 5.0 8.0 0.00 0.00 0.00 41 1013.0
20260904205254 71 132 5.0 12.0 0.00 0.00 0.00 42 1012.9
20260904204751 72 154 4.0 8.0 0.00 0.00 0.00 42 1012.9
20260904204247 71 161 5.0 10.0 0.00 0.00 0.00 41 1013.2
20260904203742 70 138 0.0 8.0 0.00 0.00 0.00 42 1013.1
20260904203238 70 166 5.0 10.0 0.00 0.00 0.00 42 1013.2
20260904202734 70 147 3.0 11.0 0.00 0.00 0.00 38 1013.0
20260904202230 71 184 3.0 10.0 0.00 0.00 0.00 39 1013.2
20260904201726 72 200 5.0 11.0 0.00 0.00 0.00 41 1013.2
20260904201225 70 156 3.0 6.0 0.00 0.00 0.00 43 1013.1
20260904200720 70 147 3.0 4.0 0.00 0.00 0.00 45 1013.1
20260904200215 68 98 3.0 9.0 0.00 0.00 0.00 46 1013.1
20260904195714 70 112 8.0 13.0 0.00 0.00 0.00 46 1013.0
20260904195207 68 83 3.0 7.0 0.00 0.00 0.00 46 1013.0
20260904194702 69 109 5.0 10.0 0.00 0.00 0.00 45 1013.0
20260904194155 69 116 7.0 9.0 0.00 0.00 0.00 46 1012.9
20260904193651 68 157 4.0 8.0 0.00 0.00 0.00 47 1013.1
20260904193148 69 128 7.0 9.0 0.00 0.00 0.00 47 1013.3
20260904192647 67 142 4.0 13.0 0.00 0.00 0.00 51 1013.3
20260904192143 67 26 5.0 11.0 0.00 0.00 0.00 51 1013.4
20260904191639 67 71 2.0 10.0 0.00 0.00 0.00 52 1013.3
20260904191136 66 356 2.0 3.0 0.00 0.00 0.00 50 1013.4
20260904190631 65 50 2.0 5.0 0.00 0.00 0.00 50 1013.6
20260904190127 66 88 7.0 8.0 0.00 0.00 0.00 49 1013.5
20260904185624 66 84 2.0 4.0 0.00 0.00 0.00 50 1013.6
20260904185118 66 177 3.0 7.0 0.00 0.00 0.00 51 1013.7
20260904184617 66 76 2.0 6.0 0.00 0.00 0.00 51 1013.7
20260904184112 64 309 2.0 9.0 0.00 0.00 0.00 54 1013.9
20260904183608 66 107 4.0 10.0 0.00 0.00 0.00 54 1013.7
20260904183102 65 127 4.0 9.0 0.00 0.00 0.00 54 1013.7
20260904182558 65 184 5.0 7.0 0.00 0.00 0.00 54 1013.8
20260904182052 65 127 5.0 7.0 0.00 0.00 0.00 57 1013.7
20260904181548 66 82 7.0 11.0 0.00 0.00 0.00 55 1013.8
20260904181042 65 237 1.0 4.0 0.00 0.00 0.00 54 1013.6
20260904180536 62 119 3.0 6.0 0.00 0.00 0.00 59 1013.7
20260904180032 63 193 3.0 4.0 0.00 0.00 0.00 58 1013.8
20260904175526 64 136 6.0 7.0 0.00 0.00 0.00 55 1013.9
20260904175024 63 121 4.0 9.0 0.00 0.00 0.00 59 1013.8
20260904174519 62 107 4.0 7.0 0.00 0.00 0.00 61 1013.7
20260904174016 62 124 2.0 9.0 0.00 0.00 0.00 60 1013.7
20260904173511 61 125 5.0 9.0 0.00 0.00 0.00 64 1013.9
20260904173007 61 122 5.0 10.0 0.00 0.00 0.00 64 1013.8
20260904172503 60 152 2.0 8.0 0.00 0.00 0.00 65 1013.8
20260904172001 60 108 4.0 9.0 0.00 0.00 0.00 68 1013.7
20260904171457 60 124 6.0 8.0 0.00 0.00 0.00 67 1013.6
20260904170952 60 116 3.0 8.0 0.00 0.00 0.00 69 1013.5
20260904170447 60 95 5.0 7.0 0.00 0.00 0.00 71 1013.8
20260904165943 59 84 5.0 7.0 0.00 0.00 0.00 72 1013.6
20260904165442 59 99 6.0 7.0 0.00 0.00 0.00 73 1013.6
20260904164942 58 135 2.0 8.0 0.00 0.00 0.00 75 1013.4
20260904164436 57 132 4.0 8.0 0.00 0.00 0.00 73 1013.6
20260904163932 57 139 4.0 7.0 0.00 0.00 0.00 75 1013.6
20260904163431 57 76 3.0 7.0 0.00 0.00 0.00 76 1013.8
20260904162926 56 138 5.0 6.0 0.00 0.00 0.00 78 1013.6
20260904162422 55 101 5.0 7.0 0.00 0.00 0.00 80 1013.6
20260904161917 54 93 5.0 7.0 0.00 0.00 0.00 81 1013.6
20260904161412 54 132 4.0 8.0 0.00 0.00 0.00 82 1013.8
20260904160908 53 146 4.0 6.0 0.00 0.00 0.00 84 1013.8
20260904160403 54 92 3.0 4.0 0.00 0.00 0.00 89 1013.8
20260904155857 52 108 2.0 3.0 0.00 0.00 0.00 91 1013.7
20260904155352 51 118 0.0 3.0 0.00 0.00 0.00 92 1013.9
20260904154850 51 55 0.0 3.0 0.00 0.00 0.00 95 1013.8
20260904154345 49 102 2.0 3.0 0.00 0.00 0.00 96 1014.1
20260904153841 49 98 2.0 2.0 0.00 0.00 0.00 96 1013.9
20260904153336 49 76 2.0 2.0 0.00 0.00 0.00 97 1013.9
20260904152832 46 119 0.0 2.0 0.00 0.00 0.00 97 1013.8
20260904152327 48 95 2.0 3.0 0.00 0.00 0.00 98 1013.9
20260904151821 48 108 3.0 4.0 0.00 0.00 0.00 98 1013.8
20260904151320 47 108 2.0 3.0 0.00 0.00 0.00 98 1013.7
20260904150817 46 63 0.0 2.0 0.00 0.00 0.00 97 1013.8
20260904150312 46 57 2.0 4.0 0.00 0.00 0.00 98 1013.8
20260904145810 45 103 0.0 3.0 0.00 0.00 0.00 98 1013.6
20260904145306 46 127 2.0 3.0 0.00 0.00 0.00 98 1013.7
20260904144801 46 84 3.0 4.0 0.00 0.00 0.00 98 1013.8
20260904144257 44 53 1.0 2.0 0.00 0.00 0.00 98 1013.8
20260904143752 43 166 0.0 2.0 0.00 0.00 0.00 98 1013.6
20260904143249 43 161 0.0 2.0 0.00 0.00 0.00 98 1013.6
20260904142745 43 126 2.0 3.0 0.00 0.00 0.00 98 1013.4
20260904142241 41 310 3.0 3.0 0.00 0.00 0.00 98 1013.4
20260904141741 41 47 2.0 3.0 0.00 0.00 0.00 98 1013.4
20260904141236 42 136 3.0 3.0 0.00 0.00 0.00 98 1013.3
20260904140731 42 27 1.0 3.0 0.00 0.00 0.00 98 1013.3
20260904140227 42 51 2.0 3.0 0.00 0.00 0.00 98 1013.3
20260904135725 42 324 1.0 3.0 0.00 0.00 0.00 98 1013.3
20260904135221 41 122 0.0 3.0 0.00 0.00 0.00 98 1013.1
20260904134717 41 263 1.0 2.0 0.00 0.00 0.00 98 1013.3
20260904134216 42 195 0.0 2.0 0.00 0.00 0.00 98 1013.2
20260904133711 41 293 2.0 3.0 0.02 0.00 0.00 98 1013.1
20260904133208 42 75 0.0 2.0 0.02 0.00 0.00 98 1013.2
20260904132706 42 50 3.0 4.0 0.00 0.00 0.00 98 1013.0
20260904132201 42 38 1.0 3.0 0.00 0.00 0.00 98 1013.1
20260904131655 42 62 0.0 2.0 0.00 0.00 0.00 98 1013.1
20260904131151 42 58 1.0 2.0 0.00 0.00 0.00 98 1012.6
20260904130651 42 164 0.0 2.0 0.00 0.00 0.00 98 1013.0
20260904130150 42 122 0.0 2.0 0.00 0.00 0.00 98 1012.8
20260904125647 42 299 0.0 2.0 0.00 0.00 0.00 98 1012.6
20260904125142 42 32 1.0 3.0 0.00 0.00 0.00 98 1012.8
20260904124637 42 34 0.0 1.0 0.00 0.00 0.00 98 1012.8
20260904124132 42 100 2.0 3.0 0.00 0.00 0.00 98 1012.5
20260904123627 42 195 0.0 2.0 0.00 0.00 0.00 98 1012.8
20260904123123 42 211 2.0 2.0 0.00 0.00 0.00 98 1012.9
20260904122617 42 25 0.0 1.0 0.00 0.00 0.00 98 1012.5
20260904122112 42 117 0.0 2.0 0.00 0.00 0.00 98 1012.6
20260904121608 42 180 0.0 2.0 0.00 0.00 0.00 98 1012.8
20260904121103 42 275 2.0 3.0 0.00 0.00 0.00 98 1012.6
20260904120559 42 269 0.0 2.0 0.00 0.00 0.00 98 1012.6
20260904120055 42 35 2.0 3.0 0.00 0.00 0.00 98 1012.6
20260904115550 42 71 4.0 5.0 0.00 0.00 0.00 98 1012.5
20260904115044 42 304 1.0 3.0 0.00 0.00 0.00 98 1012.6
20260904114539 42 264 1.0 2.0 0.00 0.00 0.00 98 1012.8
20260904114038 42 46 2.0 4.0 0.00 0.00 0.00 98 1012.4
20260904113533 43 292 1.0 2.0 0.00 0.00 0.00 98 1012.5
20260904113033 43 305 1.0 2.0 0.00 0.00 0.00 98 1012.4
20260904112528 43 113 1.0 3.0 0.00 0.00 0.00 98 1012.5
20260904112024 42 258 1.0 2.0 0.00 0.00 0.00 98 1012.6
20260904111520 42 256 0.0 2.0 0.00 0.00 0.00 98 1012.6
20260904111015 42 126 0.0 2.0 0.00 0.00 0.00 98 1012.5
20260904110514 43 75 1.0 3.0 0.00 0.00 0.00 98 1012.3
20260904110010 43 57 1.0 2.0 0.00 0.00 0.00 98 1012.3
20260904105504 43 300 1.0 3.0 0.00 0.00 0.00 98 1012.2
20260904104959 43 112 2.0 3.0 0.00 0.00 0.00 98 1012.2
20260904104454 43 266 0.0 3.0 0.00 0.00 0.00 98 1012.3
20260904103950 43 254 0.0 2.0 0.00 0.00 0.00 98 1012.4
20260904103446 43 77 2.0 3.0 0.00 0.00 0.00 98 1012.3
20260904102942 43 101 1.0 2.0 0.00 0.00 0.00 98 1012.3
20260904102437 43 89 2.0 2.0 0.00 0.00 0.00 97 1012.4
20260904101932 44 29 0.0 3.0 0.00 0.00 0.00 98 1012.2
20260904101430 44 72 1.0 2.0 0.00 0.00 0.00 97 1012.1
20260904100925 44 235 0.0 2.0 0.00 0.00 0.00 98 1011.9
20260904100420 44 320 2.0 4.0 0.00 0.00 0.00 98 1012.2